Wind_Speed
18 17 17 17 17 17 17 16 16 16 16 15 15 14 13 12 12 11 10 9 8 7 7 8 9 9 10 12 13 14 15 16 16 15 15 15 14 16 17 18 18 18 17 16 15 13 12 12 11 12 12 12 12 12 12 13 13 14 14 15 15 16 17 18 19 20 20 19 19 19 19 20 20 21 21 22 22 22 22 22 23 23 24 25 25 24 23 23
20 20 19 19 19 19 18 18 18 18 17 17 17 16 15 14 13 12 12 11 10 9 8 8 9 9 10 11 12 13 14 15 16 15 15 14 13 14 16 17 17 17 16 16 15 14 13 13 12 12 13 13 13 13 13 13 13 13 14 15 15 15 16 17 18 19 19 19 19 18 18 18 19 19 20 21 22 22 22 23 23 23 24 24 24 23 23 23
23 22 22 21 21 21 20 20 20 20 19 19 19 18 18 17 16 14 13 13 12 11 10 9 9 10 10 11 12 13 13 14 15 15 15 14 13 13 15 16 16 17 16 16 16 15 14 14 14 13 13 13 13 13 13 14 14 14 14 15 15 16 16 17 18 19 19 19 19 18 18 17 17 18 19 20 21 21 22 23 23 23 23 24 24 24 24 23
26 25 24 24 23 23 23 22 22 22 22 21 21 20 20 19 18 17 16 15 14 13 13 12 11 11 11 11 12 12 13 13 14 15 15 14 13 13 14 15 16 16 16 16 16 16 15 15 15 14 14 14 14 14 14 14 14 14 15 15 16 17 17 18 18 19 19 19 19 19 18 18 18 17 18 19 19 20 21 21 22 23 23 23 23 23 23 24
28 27 26 26 25 25 25 25 25 24 24 23 23 22 21 21 20 19 18 17 16 15 15 14 13 12 12 12 13 13 13 13 14 14 14 14 14 13 13 14 15 15 15 15 16 16 16 16 15 15 15 15 16 15 15 15 14 14 15 16 17 18 18 19 19 20 20 20 20 20 19 19 18 18 18 19 19 20 20 21 21 22 22 23 23 24 24 25
30 29 28 28 27 27 27 27 27 27 26 26 25 24 23 22 22 22 21 19 18 18 17 16 16 15 14 14 14 14 14 14 14 14 14 14 14 14 13 14 15 15 15 15 15 16 16 16 15 16 16 16 16 17 16 16 16 15 15 16 17 18 19 19 19 20 20 20 20 20 20 20 19 19 19 19 21 21 21 21 21 22 23 24 25 26 26 27
31 31 30 30 29 29 29 29 29 29 29 28 28 27 26 24 23 24 23 22 21 20 19 19 18 17 16 16 16 15 15 15 15 15 14 14 15 14 14 14 14 15 15 15 15 16 16 15 15 16 16 16 16 17 18 18 18 17 17 17 18 19 19 20 20 20 20 20 20 20 20 20 20 20 20 21 21 21 21 22 22 23 24 24 25 26 27 28
32 32 31 31 31 30 30 30 30 30 30 30 30 29 28 27 26 25 25 24 23 22 22 21 20 19 18 18 17 17 17 16 16 16 15 15 15 15 15 15 15 15 15 16 16 16 17 16 16 16 17 17 17 17 18 18 19 18 18 18 18 19 20 21 21 21 21 21 21 21 21 21 21 21 21 22 22 21 22 22 23 24 24 25 26 26 27 28
33 33 33 32 32 32 32 32 32 32 32 32 32 31 31 30 28 27 27 26 25 25 24 23 22 21 21 20 19 19 18 18 18 17 17 15 16 16 16 16 16 16 16 16 16 17 18 18 17 17 18 18 17 18 18 18 19 20 20 19 19 20 21 21 22 22 22 22 22 22 22 23 23 23 22 23 23 23 24 24 25 26 27 28 29 29 30 30
34 34 34 34 33 33 33 33 33 33 33 33 33 33 33 32 31 30 29 28 28 27 26 26 25 24 23 22 21 21 20 20 20 19 18 17 17 17 17 17 17 17 18 17 17 18 18 19 18 18 19 19 18 18 19 19 19 20 21 21 21 21 22 22 23 23 23 24 24 23 23 24 25 24 24 24 25 25 26 26 27 28 29 30 31 31 32 33
36 35 35 35 35 35 35 35 35 35 35 35 35 34 34 34 33 32 32 31 30 29 28 28 27 26 25 24 23 23 22 22 21 21 20 19 18 18 18 18 18 19 19 19 18 18 19 20 20 20 20 20 20 19 20 20 20 20 21 22 22 23 23 23 24 24 24 25 25 24 23 25 28 25 25 26 26 26 27 27 28 29 30 31 32 32 33 34
36 36 36 36 36 36 36 36 36 37 37 37 37 36 36 36 35 34 34 33 32 31 30 30 29 28 27 26 26 25 24 24 23 22 22 21 19 19 20 20 19 20 20 21 20 20 20 21 21 21 22 22 21 21 21 21 21 21 21 22 23 24 25 25 25 26 25 26 27 26 22 25 30 28 27 28 27 28 28 28 29 30 31 32 33 33 34 35
36 37 37 38 38 38 38 38 38 38 38 38 38 38 38 37 37 36 35 35 34 33 32 32 31 30 29 28 28 27 26 26 25 24 24 23 22 21 21 21 21 21 21 22 22 22 21 22 22 23 23 23 23 23 23 23 23 23 22 22 23 25 27 27 28 28 27 27 28 28 22 23 30 30 29 30 30 30 30 30 31 32 33 33 34 34 35 36
37 37 37 38 39 39 40 39 39 39 39 40 40 40 39 39 39 38 37 36 36 35 34 34 33 32 31 30 30 29 28 28 27 27 26 25 24 23 23 22 22 22 23 23 23 23 23 23 24 24 24 25 25 25 25 25 25 25 24 24 24 24 27 29 30 30 30 29 30 31 25 22 29 31 30 31 31 31 32 32 33 34 35 35 35 35 36 36
37 37 38 39 39 40 41 41 41 41 41 41 41 41 41 40 40 39 38 38 37 37 36 36 35 34 33 31 31 31 30 30 29 28 28 27 27 25 25 24 23 23 24 24 24 25 25 25 25 25 25 26 26 27 27 26 26 27 26 26 26 25 26 29 32 32 31 31 32 34 30 25 29 32 31 32 32 32 32 33 35 36 36 37 37 37 37 36
37 38 38 39 39 40 41 42 43 43 43 43 43 43 43 42 41 41 40 39 39 38 38 37 37 36 34 33 33 33 32 31 31 30 30 29 28 27 27 26 25 24 25 25 25 26 26 27 27 27 27 27 28 28 28 28 28 28 28 28 27 27 27 28 32 34 33 32 33 35 34 30 31 33 33 34 35 34 34 35 37 37 37 38 38 38 37 37
37 38 38 39 39 40 41 42 43 44 44 44 44 44 45 44 43 43 42 41 41 40 39 38 38 38 36 35 34 34 34 33 32 31 31 31 30 29 29 28 27 26 26 27 27 27 28 28 28 28 28 29 29 30 30 30 30 30 30 30 30 29 29 29 33 35 35 34 34 36 36 32 32 35 35 36 37 35 35 37 38 38 38 38 38 38 38 38
38 38 38 38 39 40 41 42 43 44 45 46 46 46 46 46 45 44 44 43 43 42 42 40 40 40 37 37 36 35 35 34 32 32 32 32 32 31 30 30 30 29 28 28 28 29 30 29 29 30 30 30 31 31 32 32 31 32 32 32 32 31 31 32 35 37 37 36 34 36 39 35 33 34 37 38 38 37 37 38 38 38 38 38 38 38 38 38
38 38 38 38 39 40 41 41 43 44 44 46 47 47 47 48 47 47 46 45 45 44 44 43 43 41 39 39 38 37 36 34 33 32 33 33 33 32 32 31 31 31 30 30 30 31 31 31 30 31 32 32 32 33 34 34 34 34 34 34 33 33 32 33 37 38 39 39 36 36 41 39 34 34 37 39 39 38 38 38 39 39 39 38 38 38 39 39
40 39 39 39 40 40 40 41 42 43 44 45 47 48 48 49 49 48 48 48 47 47 46 46 45 43 42 41 40 39 37 35 34 34 34 35 35 34 33 33 33 33 32 32 33 32 33 32 31 32 33 33 33 34 35 35 36 35 35 35 35 35 34 35 38 39 40 42 38 37 41 40 37 35 36 38 39 39 38 39 41 40 40 39 39 39 40 40
41 40 40 41 40 40 41 41 41 42 43 44 46 47 48 49 50 50 50 49 49 49 48 48 47 46 45 44 43 41 39 37 36 36 37 37 37 37 36 35 35 35 34 34 34 34 35 33 32 34 35 34 34 35 36 37 37 37 37 37 36 36 37 37 39 41 43 44 41 40 43 41 39 37 36 37 39 38 38 40 41 40 40 39 40 41 41 42
42 42 42 42 41 41 42 42 42 42 43 43 45 46 48 49 50 51 51 51 50 50 50 49 49 48 47 47 45 43 41 39 38 39 39 39 39 39 38 38 38 37 36 36 36 36 36 34 33 35 36 36 36 36 37 38 39 39 39 40 38 38 40 39 39 42 44 46 44 43 45 42 40 38 35 38 39 37 38 39 40 40 40 40 40 41 42 43
45 44 43 43 42 43 43 43 43 43 43 44 44 45 47 48 49 50 52 52 50 50 51 50 50 50 49 48 46 45 44 41 41 41 41 41 41 41 41 40 40 40 38 38 38 38 38 36 35 37 37 37 38 38 38 40 40 41 41 41 40 40 42 42 41 43 44 47 47 46 47 44 42 38 33 38 41 37 37 39 39 40 40 40 40 41 42 43
47 46 45 45 45 45 45 45 44 44 44 45 45 45 46 47 48 49 51 53 52 49 49 50 51 51 50 49 48 47 45 44 43 42 42 43 42 43 43 42 42 41 39 39 40 41 39 38 38 38 38 39 39 39 40 41 42 42 41 42 43 42 43 44 45 45 45 47 47 48 49 46 44 41 32 35 40 38 39 41 40 40 40 40 41 42 43 43
50 48 48 48 48 47 47 47 46 45 46 46 46 46 47 47 48 49 50 54 54 49 47 50 50 50 49 49 48 47 46 45 44 43 43 44 44 44 44 44 44 42 41 42 43 43 40 40 40 39 39 40 41 40 40 43 45 44 41 41 45 45 45 46 46 47 48 49 48 48 49 47 48 47 37 34 37 38 42 43 40 41 41 42 43 43 44 44
51 50 50 50 50 50 50 49 48 48 48 48 48 48 48 49 49 50 51 55 58 52 47 49 49 48 47 46 46 46 46 46 45 44 44 45 46 46 45 45 45 44 44 45 46 46 42 40 41 41 41 42 42 40 40 44 47 46 43 42 45 46 46 47 47 48 50 51 52 49 48 51 52 51 44 38 37 39 43 44 42 43 43 43 44 46 47 48
53 52 52 52 52 52 52 51 50 50 50 50 51 51 51 51 51 51 52 57 62 56 50 49 47 47 46 45 44 44 45 45 45 45 45 46 47 47 47 47 46 46 46 47 48 46 42 42 42 42 43 43 42 41 41 44 47 48 45 44 46 46 48 48 48 49 50 53 56 50 48 54 55 52 50 43 38 39 43 44 43 43 44 45 47 49 50 50
54 53 53 54 53 53 53 53 52 52 52 53 53 53 53 53 53 53 55 61 65 61 54 49 45 45 44 43 43 43 44 44 44 45 45 46 47 48 48 47 47 47 47 48 48 45 43 44 44 44 45 44 42 41 43 44 47 48 47 47 48 48 49 49 49 51 51 55 57 50 49 56 56 54 53 47 40 41 44 43 41 42 44 47 49 51 51 50
55 54 54 55 54 54 54 54 53 53 53 54 54 55 55 56 56 56 59 65 67 63 57 50 46 44 43 43 43 44 45 44 44 45 45 46 47 47 47 47 47 48 47 48 47 45 45 45 46 46 45 43 42 43 43 44 46 48 48 49 49 50 50 50 52 52 53 58 56 51 51 56 58 55 52 47 42 43 46 43 42 43 45 48 50 51 51 50
57 55 56 56 55 55 55 54 53 53 53 53 54 55 56 57 58 60 65 68 66 62 59 54 49 45 44 44 45 45 45 45 46 46 46 47 47 47 47 47 48 48 48 49 48 46 47 47 47 47 45 44 43 43 44 45 46 47 49 50 50 51 52 52 54 54 55 59 56 53 54 57 60 56 51 50 47 46 47 45 45 45 45 48 50 52 52 52
58 57 57 57 56 56 55 54 54 53 53 53 54 55 56 57 59 64 69 67 63 61 59 56 52 48 47 47 48 48 48 48 49 49 49 49 49 49 49 49 49 49 50 51 49 48 49 49 48 47 46 45 44 44 45 46 47 48 50 51 51 53 54 55 57 55 57 60 56 55 57 59 61 56 52 54 51 49 49 48 47 45 44 48 51 54 55 56
60 59 58 58 57 57 56 55 55 55 55 54 54 55 56 58 64 68 68 63 60 61 57 55 54 52 51 50 50 50 50 51 52 52 52 52 53 53 52 51 51 51 52 52 50 50 51 50 49 48 46 45 44 45 46 47 48 49 51 51 52 54 55 57 59 58 60 61 57 58 60 61 61 56 55 56 54 52 51 50 47 44 46 51 54 56 57 58
61 60 59 59 58 57 57 56 56 56 56 56 56 57 58 63 70 69 64 60 60 60 57 55 55 54 53 52 51 51 52 52 52 53 53 54 55 54 54 53 52 52 52 52 52 53 53 52 50 47 46 46 46 46 47 49 50 52 53 53 53 54 56 59 61 61 62 61 60 61 62 63 60 57 58 59 57 54 51 49 47 46 49 54 56 57 58 59
61 61 60 59 58 58 57 57 57 57 57 58 58 59 61 69 74 68 62 60 59 58 58 57 56 55 55 55 55 54 53 53 53 53 53 54 55 55 54 54 53 52 52 52 53 52 53 55 53 49 48 49 49 49 50 51 53 55 55 55 55 55 56 58 61 63 64 62 62 64 64 63 61 60 62 61 58 54 51 49 49 49 52 55 56 58 59 59
60 61 61 60 59 59 58 57 57 57 58 59 59 61 67 73 72 66 62 60 58 58 59 58 57 57 58 57 57 55 54 54 54 54 54 55 56 55 55 55 54 52 52 52 52 51 54 59 58 55 54 53 52 52 53 54 56 57 56 57 57 57 57 60 62 63 64 63 63 66 65 63 62 63 63 61 57 52 51 50 50 51 54 56 57 59 60 61
59 60 62 61 60 60 60 59 59 59 60 61 62 66 72 72 69 66 64 61 59 58 58 58 59 59 59 59 58 56 55 55 55 56 56 57 57 57 57 57 55 54 53 52 51 51 55 59 60 59 58 57 56 56 57 58 59 58 58 59 58 59 60 62 64 63 64 65 65 65 66 66 65 63 59 58 55 52 52 51 52 54 55 58 60 61 63 63
60 60 62 62 61 61 62 62 61 62 63 63 66 70 72 71 69 67 65 63 60 59 59 60 61 61 61 61 60 58 57 57 58 59 58 59 60 60 59 58 57 56 55 53 52 53 55 57 57 58 58 58 58 59 60 60 60 60 61 60 60 62 63 63 65 64 65 68 67 65 68 69 67 60 55 56 56 53 53 54 55 57 58 60 63 64 65 64
62 62 63 63 63 62 62 63 64 64 65 67 71 73 73 73 71 68 66 65 63 61 62 63 63 63 64 64 64 62 60 60 61 61 60 61 63 63 61 59 58 57 55 54 54 54 55 56 55 55 56 56 56 59 60 59 60 61 61 61 62 64 64 63 65 66 68 70 69 68 70 68 64 61 57 57 56 53 55 58 58 58 60 63 65 65 65 65
65 65 64 64 65 65 65 65 66 66 68 72 74 74 73 73 72 70 67 65 64 64 65 65 64 64 65 66 65 64 64 63 63 63 63 63 65 64 62 60 58 56 55 55 56 56 56 57 57 54 54 56 57 59 58 57 58 61 62 64 65 65 65 65 67 68 68 70 70 71 71 64 59 61 59 57 55 53 57 60 59 59 62 64 65 65 65 65
69 69 66 65 68 69 68 68 68 69 72 73 72 72 73 72 71 69 67 65 65 65 66 65 64 65 65 65 65 64 65 65 64 64 65 64 65 64 62 60 58 57 56 57 59 59 59 60 59 57 57 60 60 59 59 59 60 62 63 65 66 65 67 68 69 68 68 70 70 73 75 64 55 59 59 56 56 56 59 61 59 61 64 64 65 66 66 66
72 73 70 69 70 70 70 71 70 71 73 72 71 72 72 71 69 68 67 67 67 67 67 67 66 66 65 65 65 65 65 66 66 66 66 65 65 64 62 60 59 59 59 60 61 61 61 61 61 61 62 62 62 61 63 64 64 65 65 66 66 66 67 68 70 69 67 71 72 74 79 69 55 58 59 56 59 60 59 60 60 62 64 65 66 66 66 66
75 75 73 72 73 72 72 72 71 72 74 73 72 72 72 71 70 70 69 69 69 69 69 68 67 67 66 66 67 66 67 68 68 68 69 68 66 64 62 62 63 63 63 63 63 63 63 61 61 64 64 64 65 66 67 67 68 68 67 66 65 65 65 66 69 70 69 74 76 78 84 74 57 57 59 58 60 60 59 61 61 62 64 65 66 66 65 64
78 77 77 76 76 75 75 75 74 76 77 74 73 73 73 73 72 71 71 71 71 71 70 70 69 69 69 68 68 68 69 70 71 71 71 69 67 64 62 64 65 66 65 65 65 63 62 62 63 65 65 66 69 70 71 71 70 69 68 66 66 65 65 67 72 74 74 78 80 80 84 75 60 56 59 59 59 59 60 61 60 60 63 64 65 65 64 62
75 77 80 81 80 80 79 78 77 77 75 73 73 74 74 74 73 72 72 72 73 73 73 73 72 72 72 71 70 70 71 73 74 73 72 71 68 64 65 67 68 67 67 66 64 63 62 63 64 66 70 72 73 73 72 70 69 69 68 68 69 68 69 73 76 79 80 81 80 80 81 74 62 59 61 61 61 60 59 58 58 60 62 63 65 64 62 61
75 76 78 80 83 85 84 81 79 78 76 74 74 73 73 74 73 72 72 73 73 74 75 75 74 74 73 73 73 74 75 76 76 76 74 73 72 69 70 72 71 70 68 65 64 65 66 68 69 72 76 77 75 72 71 70 70 71 69 69 69 68 70 72 74 80 83 80 79 80 79 74 66 64 65 64 62 59 56 56 59 61 62 63 64 63 61 61
76 76 76 77 81 84 83 82 82 83 81 79 79 77 74 73 72 71 71 72 73 75 76 75 74 74 74 74 75 76 75 76 77 77 75 74 75 75 75 75 74 70 66 64 66 69 72 75 75 76 78 78 74 72 72 73 73 71 68 65 64 63 65 66 71 78 78 77 80 79 77 76 71 68 67 63 59 55 54 58 62 62 63 63 63 62 62 62
77 77 77 78 79 79 78 77 80 82 81 80 80 79 77 76 74 74 74 75 75 76 77 76 75 76 76 75 76 76 76 75 76 76 73 72 74 74 73 74 72 68 65 65 68 72 74 74 72 72 74 74 71 70 72 73 72 69 67 64 62 64 65 68 73 75 71 74 81 76 72 74 74 70 66 60 54 54 57 60 63 63 63 63 62 62 62 60
81 79 79 79 81 81 78 75 75 77 77 77 78 77 77 77 78 78 78 78 78 79 79 79 78 77 75 73 73 73 70 69 70 70 68 67 67 66 66 67 67 67 68 69 70 72 73 73 72 71 72 72 70 69 70 71 69 66 66 66 67 69 71 73 74 71 66 72 77 71 66 70 73 70 64 57 55 58 61 62 63 63 63 63 63 62 60 58
84 81 79 80 82 83 81 77 77 78 78 78 79 79 77 76 76 77 77 77 77 77 76 76 75 73 71 69 69 68 67 68 71 70 67 66 64 62 64 65 66 69 71 72 73 72 73 75 73 72 73 74 72 70 70 69 69 69 69 69 70 72 72 71 69 67 64 67 70 68 67 71 73 68 61 58 61 64 63 62 62 63 63 63 62 61 58 57
87 84 82 84 86 85 84 83 82 83 81 80 81 81 79 78 77 77 77 78 78 76 75 75 74 71 70 69 69 71 72 73 74 72 69 68 65 64 66 67 66 68 71 71 72 72 73 74 71 69 73 75 73 72 73 73 74 73 71 70 70 70 67 62 62 63 62 65 67 67 70 75 73 66 63 65 66 64 62 62 62 64 64 63 62 59 57 56
88 85 84 87 89 88 87 86 86 86 85 83 83 81 80 80 78 75 76 78 79 78 78 77 74 71 70 71 73 76 76 73 72 70 69 69 68 67 68 67 65 66 68 68 68 69 71 72 70 71 76 78 75 75 76 76 75 74 73 72 69 65 60 57 60 63 64 67 68 67 73 78 73 66 66 66 63 61 62 63 64 65 64 62 59 56 56 57
87 86 86 88 91 91 90 89 89 89 88 86 84 83 81 79 75 74 77 80 80 79 78 76 74 73 74 77 79 78 73 69 68 67 67 68 69 68 68 67 65 66 67 67 70 71 73 74 73 74 78 79 77 77 78 77 77 79 78 71 62 56 56 59 63 66 67 67 67 69 74 76 70 66 65 62 60 62 64 64 64 63 60 58 56 56 56 57
Wind_Direction
249 252 255 257 260 261 263 265 267 268 270 272 273 276 278 281 284 287 291 294 299 304 311 319 328 335 341 346 349 352 354 356 357 360 3 7 9 10 12 11 9 7 3 359 357 355 352 353 352 345 340 336 332 328 324 320 318 315 310 308 306 303 301 300 299 299 301 302 303 302 301 301 299 297 296 295 294 293 292 290 288 288 288 286 286 286 286 287
248 251 253 256 258 261 262 264 265 267 268 269 271 273 275 276 279 282 283 286 289 293 297 303 312 320 328 334 339 344 348 350 352 355 357 359 2 5 7 9 8 6 3 358 354 351 347 347 349 346 342 339 337 334 331 329 327 325 320 318 317 314 311 309 308 307 308 308 307 308 307 305 302 301 300 298 297 296 294 292 290 289 287 286 286 286 287 287
247 249 252 254 256 258 260 262 263 265 266 267 268 270 272 274 275 277 278 280 282 285 288 290 297 305 313 320 327 333 339 343 346 349 351 352 355 358 1 4 6 5 2 357 353 349 346 344 344 344 342 339 339 338 336 334 333 331 327 326 325 322 321 319 317 316 314 312 310 309 309 308 308 307 305 303 302 300 297 294 292 290 288 287 287 287 287 288
246 248 251 253 255 257 259 261 262 263 264 265 265 267 269 271 273 274 275 276 277 279 281 283 286 291 299 307 314 321 327 334 338 342 344 346 348 350 354 358 1 2 359 356 352 348 345 342 338 338 338 338 339 340 338 336 336 335 333 331 330 328 326 325 324 322 321 318 315 313 310 308 308 308 307 306 306 303 299 297 296 293 292 290 289 288 289 289
244 247 249 252 255 257 259 261 262 263 264 264 265 265 266 268 270 271 272 273 274 276 277 279 281 283 288 295 302 309 315 323 328 333 337 341 342 343 345 349 353 356 356 354 350 347 344 339 334 333 334 336 337 337 337 337 337 337 335 334 332 331 330 328 327 326 324 322 319 317 313 310 308 305 303 302 302 301 300 301 300 298 296 294 293 292 292 292
242 245 248 251 253 256 259 261 262 264 265 265 265 266 266 266 268 270 270 271 271 273 275 276 278 280 283 287 293 299 305 311 317 323 329 333 336 337 336 339 344 348 350 349 347 346 342 337 333 331 332 333 333 333 334 336 337 337 336 336 334 332 332 330 329 327 325 323 321 319 316 314 312 307 304 300 297 297 297 298 297 296 294 294 293 293 293 293
241 243 246 249 252 255 257 260 261 263 265 265 266 267 267 266 267 268 270 270 270 271 272 273 276 278 280 283 287 292 297 302 308 315 320 326 331 331 330 330 334 339 342 342 343 343 339 336 333 331 330 330 330 330 332 333 335 335 335 336 334 332 332 330 329 328 328 327 326 325 323 320 316 311 307 302 299 300 299 296 293 292 291 290 290 290 291 291
241 243 245 248 250 253 255 258 260 261 263 265 266 267 267 267 266 267 269 270 270 270 271 272 273 275 277 280 283 287 291 295 301 307 311 317 323 325 325 325 325 329 333 335 336 338 336 335 333 331 330 329 327 327 328 329 331 331 333 334 332 331 329 328 328 329 329 330 330 330 330 327 320 315 309 304 305 305 301 298 296 294 292 291 290 290 289 289
242 243 245 247 249 251 253 256 258 259 262 263 264 266 267 267 267 267 268 269 269 270 271 272 273 273 275 277 280 284 287 290 295 299 303 308 314 318 319 320 320 322 324 327 330 332 333 332 331 329 328 326 325 325 325 325 326 327 328 330 330 328 328 328 327 327 328 328 330 332 333 330 321 317 313 311 311 308 304 302 300 298 296 294 293 292 290 289
244 245 245 247 249 251 253 255 257 258 260 261 263 265 266 267 267 267 267 267 268 268 269 271 272 272 273 275 277 280 283 286 289 292 297 302 307 311 313 316 316 316 318 320 322 326 328 328 327 327 326 325 324 323 323 322 322 322 324 326 327 326 326 327 326 326 327 327 327 330 334 327 318 318 318 316 315 312 309 306 303 300 298 296 295 294 292 290
247 247 247 248 249 251 252 254 256 258 259 261 262 263 264 266 266 267 267 267 267 267 268 268 270 271 272 274 275 277 280 283 285 289 293 296 301 305 307 310 311 313 314 315 316 319 323 324 323 323 324 324 323 322 322 320 319 319 319 321 324 323 323 324 324 324 325 324 324 326 332 322 314 318 318 317 316 312 310 306 303 300 298 296 294 293 292 291
248 249 249 249 249 250 252 253 255 258 259 260 261 262 263 264 265 266 267 267 267 267 267 267 268 269 271 273 274 275 278 280 283 286 289 292 296 299 302 305 307 309 310 311 312 314 317 319 320 320 321 322 321 321 321 319 318 317 317 317 319 319 319 320 320 321 322 322 321 323 331 320 312 316 317 316 315 312 310 306 303 300 297 295 293 293 292 291
250 250 250 250 251 251 252 253 255 256 258 260 261 262 262 264 264 265 266 267 267 267 267 267 268 268 270 272 273 275 276 278 280 283 286 289 292 294 297 300 302 304 307 308 309 310 312 314 316 317 317 319 319 319 320 319 317 317 316 315 315 315 315 316 316 317 318 320 318 320 329 323 313 316 318 316 315 313 312 310 306 303 300 298 296 294 293 292
249 250 251 252 252 252 253 254 254 256 258 259 261 262 262 263 264 264 265 266 267 268 268 268 268 268 269 271 273 274 275 277 278 280 283 286 288 290 293 295 297 300 303 305 306 307 309 310 313 314 314 315 316 317 318 318 317 316 316 315 314 313 312 312 312 313 315 316 316 315 323 325 314 316 318 316 315 313 313 311 308 305 303 300 297 295 293 293
249 250 251 251 252 253 253 254 255 256 257 259 260 261 262 263 264 265 265 265 266 267 267 268 268 268 269 270 272 273 274 276 277 279 281 284 286 288 290 292 294 296 299 301 303 304 306 308 309 311 311 312 312 313 315 316 316 315 316 315 314 313 311 310 309 310 311 313 314 312 317 322 315 315 317 315 315 314 313 311 307 305 304 302 299 296 294 294
250 250 251 251 252 253 254 255 255 256 257 259 260 261 262 263 264 265 265 266 266 266 266 267 268 268 268 269 270 272 273 275 276 278 280 283 285 286 288 290 292 294 296 298 300 301 304 305 307 308 308 309 309 310 312 314 314 314 315 314 313 312 310 309 306 306 309 311 311 310 313 317 315 314 316 315 315 316 315 312 309 307 305 303 301 298 296 294
253 252 252 252 253 254 254 255 256 257 258 259 260 261 262 262 263 265 266 266 266 267 266 267 267 267 268 269 270 271 273 274 276 278 280 282 284 285 288 289 291 292 293 295 297 298 300 302 304 305 306 307 306 308 311 312 312 312 313 313 313 312 311 309 304 305 308 309 310 310 311 314 314 314 315 315 315 317 316 313 311 309 306 304 301 299 296 294
256 255 254 254 254 254 254 256 257 258 259 260 261 262 263 263 263 264 265 266 267 267 267 268 267 267 268 269 270 271 272 274 276 278 280 282 284 285 287 288 290 291 291 293 294 296 297 299 302 303 304 304 304 307 309 309 310 310 311 312 312 311 311 309 304 305 308 307 310 311 309 311 314 314 313 313 315 316 316 314 312 309 307 305 303 299 296 294
257 257 256 256 255 255 255 256 257 258 260 261 262 262 263 264 264 264 265 266 267 268 268 269 269 269 270 269 270 270 272 274 276 278 280 281 283 285 287 288 289 290 292 293 293 294 295 297 300 301 301 301 302 305 307 307 307 308 309 310 310 310 309 306 303 305 307 306 310 311 308 310 314 314 312 312 313 315 315 314 311 309 308 307 304 301 298 295
257 258 258 258 257 257 257 257 257 258 259 261 262 263 263 264 265 265 265 266 267 268 269 269 269 270 270 270 270 271 272 274 276 278 279 280 282 285 286 287 288 290 293 292 292 293 293 295 298 298 297 299 299 302 304 305 305 305 307 307 308 308 307 304 303 305 304 304 309 309 306 309 314 313 311 310 311 313 315 313 310 309 308 307 305 303 300 296
257 258 258 259 259 259 259 259 259 259 259 260 261 263 264 264 265 265 266 266 267 268 269 270 270 271 271 271 271 272 274 274 276 277 278 280 282 284 286 287 289 291 292 291 292 292 292 295 297 294 295 297 297 299 302 302 302 303 304 304 306 306 304 303 303 304 303 303 307 307 305 308 311 311 311 310 309 312 314 312 309 309 308 306 305 303 300 297
256 257 258 259 260 260 261 261 260 260 260 260 261 262 263 264 265 267 267 266 267 268 269 270 271 271 272 272 273 274 274 275 276 277 278 280 282 285 286 288 290 291 291 292 292 291 291 294 294 292 295 295 294 297 299 300 300 301 302 302 305 304 302 303 304 302 302 303 305 305 304 306 308 309 314 311 308 311 312 309 309 309 308 306 305 303 300 297
256 256 258 259 260 260 261 262 262 262 262 262 262 262 263 264 265 267 267 267 267 267 269 270 271 272 272 273 274 275 276 277 277 277 279 281 283 285 286 288 288 289 290 291 290 289 291 293 292 292 293 292 292 296 298 298 297 298 300 302 303 302 301 304 303 301 301 302 304 305 304 305 305 306 313 311 308 312 310 307 310 310 309 307 305 304 302 300
256 256 258 259 259 260 261 262 262 263 263 263 263 263 264 265 265 266 267 268 267 266 268 270 270 271 273 274 275 277 278 278 278 279 280 281 282 283 284 285 286 287 289 288 288 289 291 292 293 292 291 290 291 295 296 296 295 296 298 301 302 300 301 303 303 302 301 301 303 305 305 305 303 302 308 310 310 315 312 309 312 311 310 307 305 305 304 302
255 256 257 258 259 260 260 261 262 263 264 264 264 265 265 265 266 267 268 269 268 265 265 267 268 269 271 273 276 277 278 278 279 279 279 280 281 281 282 283 284 286 287 287 287 288 290 292 292 291 289 289 291 294 295 294 294 294 298 300 299 299 301 301 302 302 302 302 303 305 307 307 303 301 308 313 313 317 314 312 314 313 311 309 307 308 307 305
254 255 257 258 259 260 260 261 262 263 264 265 266 266 267 267 268 268 269 270 270 267 264 264 266 268 270 272 274 275 276 276 277 277 278 278 278 279 280 281 283 285 285 285 286 287 290 291 289 289 289 289 291 294 294 293 293 295 298 298 296 298 300 299 301 301 301 303 302 304 309 307 301 302 308 312 316 319 315 314 315 313 311 310 309 309 308 306
252 254 256 257 258 259 260 261 262 262 263 264 265 266 267 268 269 270 271 272 271 270 266 265 267 269 271 272 273 274 274 275 276 276 276 276 277 278 279 280 282 283 283 284 285 288 290 288 287 288 288 289 292 293 292 291 293 296 297 296 295 296 297 297 299 299 301 302 300 304 309 303 299 303 307 311 319 320 314 315 315 312 311 310 309 308 306 305
252 253 255 256 257 258 259 260 261 262 263 264 265 266 267 268 269 270 271 271 271 271 270 269 270 272 274 275 276 275 275 275 275 275 275 276 276 277 279 281 281 282 283 284 285 288 288 287 287 287 288 290 292 291 290 291 292 294 295 294 294 295 295 296 297 298 300 299 299 306 306 299 298 302 305 311 320 318 314 315 315 312 311 310 308 305 305 305
253 253 254 255 256 257 258 260 261 262 263 264 264 265 266 267 268 268 268 268 269 271 273 274 274 275 277 278 278 277 277 276 276 276 276 276 277 278 279 280 281 282 283 283 285 287 287 287 287 287 288 290 289 289 290 291 291 292 293 293 294 294 294 296 296 298 298 296 300 306 303 298 298 301 306 313 318 315 313 316 315 313 312 308 305 303 303 304
253 253 254 255 256 257 258 259 261 261 262 263 264 265 266 266 267 267 265 265 268 272 275 277 277 278 279 278 278 278 278 278 278 278 278 278 279 279 279 280 281 282 283 283 285 286 286 285 285 286 288 288 288 289 290 290 290 291 292 292 293 293 293 295 295 296 295 296 301 303 300 297 297 302 310 313 313 313 313 316 316 314 311 307 304 302 302 301
252 252 253 254 256 257 258 259 260 261 262 263 264 264 265 265 265 264 263 265 270 272 275 278 279 279 278 277 278 278 279 279 279 279 280 280 280 279 280 281 281 282 282 283 284 285 284 284 284 286 287 288 289 290 290 290 290 290 290 291 292 292 293 294 295 295 294 296 301 301 298 295 295 303 311 309 310 312 313 316 316 314 311 306 303 302 302 301
251 251 252 254 255 257 258 259 260 261 262 262 263 264 264 265 263 261 263 268 271 273 275 278 279 279 278 277 277 278 278 278 278 279 280 280 280 281 281 281 281 282 283 284 284 284 283 284 285 286 287 289 289 289 290 290 289 289 288 289 291 291 293 294 294 295 294 296 299 298 296 294 296 305 308 306 307 310 314 317 316 315 311 305 303 303 304 303
250 251 251 252 254 256 257 259 260 261 262 262 262 263 263 263 261 261 264 267 270 274 277 278 278 278 278 278 277 276 276 276 277 278 279 280 280 281 282 282 283 283 284 285 285 285 285 285 286 287 288 288 288 288 288 288 287 287 287 288 289 291 293 293 294 294 294 297 298 296 295 295 300 306 305 304 306 311 316 317 316 316 310 305 304 304 304 302
251 250 250 251 253 254 255 257 258 259 261 261 261 261 261 261 262 264 266 268 271 274 276 277 278 278 278 278 277 277 277 277 278 278 279 279 279 280 281 282 283 283 285 285 285 287 287 285 285 287 286 285 286 286 286 285 285 285 286 287 288 290 292 292 292 292 294 297 297 295 294 297 302 305 303 303 307 313 317 315 315 315 309 305 305 304 303 300
253 251 250 250 251 253 254 254 255 256 258 259 259 259 259 261 264 267 269 269 270 272 274 275 276 276 276 276 276 277 278 278 278 278 278 278 278 280 281 281 282 283 284 285 286 287 286 284 284 285 285 285 285 284 284 284 283 284 285 286 288 290 291 291 290 291 294 296 295 294 295 298 301 301 300 302 307 313 315 314 315 313 308 306 305 303 301 299
254 252 251 251 251 253 254 254 254 255 256 257 257 257 260 263 266 268 269 269 270 271 273 274 274 274 275 275 276 277 277 278 278 277 277 278 279 280 280 281 281 282 283 285 286 285 283 281 282 283 283 283 283 283 283 283 283 284 285 287 289 290 290 289 289 291 293 292 293 295 296 298 299 298 300 303 308 313 313 313 313 312 309 307 304 303 301 299
255 253 253 252 253 254 255 255 255 255 256 256 256 259 263 265 266 267 269 270 271 272 272 273 273 274 275 277 277 277 276 277 277 277 278 279 279 280 281 281 281 282 284 285 285 284 282 281 282 283 283 283 284 284 282 282 284 285 286 288 289 288 288 288 289 291 292 291 292 294 296 297 296 297 301 305 309 313 312 310 312 312 310 306 304 303 301 300
257 256 255 254 255 256 256 256 256 257 257 257 258 261 263 265 267 268 270 271 272 272 272 273 274 276 277 277 277 277 276 276 277 278 278 278 279 280 281 281 282 284 285 285 285 285 284 283 285 287 287 288 288 285 284 286 288 289 289 288 287 286 287 288 289 290 290 290 293 295 295 296 295 297 301 305 310 313 309 308 312 312 309 304 303 302 301 299
258 258 257 256 256 256 256 255 256 256 256 258 261 263 265 267 268 269 270 271 272 272 272 272 274 274 275 275 276 277 277 277 278 278 278 279 279 280 281 282 284 285 285 286 286 286 285 285 286 289 290 289 287 286 288 291 291 289 288 287 286 287 289 289 289 289 290 291 293 294 293 294 295 297 301 307 311 309 306 307 311 310 306 303 301 301 299 298
258 259 258 257 256 257 257 257 256 255 256 259 263 265 266 267 268 269 270 271 271 271 271 272 272 272 273 275 276 277 278 279 279 279 279 279 279 280 281 282 284 285 285 285 285 286 287 286 288 290 287 285 285 287 289 288 286 285 285 285 287 289 291 290 290 291 293 292 292 291 291 292 296 299 305 311 309 305 305 307 308 306 303 301 300 299 298 296
259 260 260 258 257 258 259 259 259 260 260 262 263 264 266 267 269 270 270 270 270 271 271 272 272 273 275 276 277 278 278 278 278 278 278 278 278 279 281 283 285 285 284 284 284 286 286 286 288 287 285 285 286 286 284 283 283 283 283 285 288 290 290 290 291 292 292 290 290 289 288 291 297 304 309 310 305 304 305 304 303 302 301 300 298 297 296 294
260 261 261 260 258 259 259 260 261 262 262 263 264 265 267 269 270 270 270 271 271 272 272 273 274 276 276 276 277 277 276 277 277 276 276 276 277 279 282 284 284 284 284 284 284 285 286 285 286 285 285 285 284 282 282 282 282 282 284 287 289 289 289 289 289 289 288 288 288 286 287 292 302 309 310 306 303 304 303 301 302 301 299 298 297 296 295 294
261 261 261 260 259 259 259 259 260 261 263 266 267 268 269 269 269 270 271 271 272 273 274 275 275 275 275 275 275 275 276 276 276 276 276 277 278 281 283 283 283 283 283 283 284 285 285 284 284 284 283 282 280 279 280 280 282 284 287 288 287 287 288 287 287 287 287 287 287 285 287 295 306 312 307 303 304 303 302 302 302 300 297 297 297 297 296 295
262 261 260 259 259 259 258 259 261 262 264 266 267 268 268 268 269 270 270 270 272 273 273 273 273 273 273 274 275 276 276 276 276 277 278 279 280 281 282 282 282 282 282 283 284 283 282 282 282 281 280 278 278 278 280 283 285 286 286 285 285 286 287 287 288 288 287 287 288 287 291 300 309 310 305 304 305 304 304 303 300 297 298 299 299 299 298 294
262 262 261 260 260 260 260 261 262 262 262 263 264 265 266 266 268 269 270 270 271 271 272 272 272 273 274 274 275 275 275 275 276 278 279 280 280 279 280 281 281 281 280 281 281 280 279 277 276 276 276 276 278 280 282 285 284 284 284 285 286 288 287 288 290 287 286 289 290 290 296 303 306 304 303 304 305 306 305 300 297 298 300 301 301 300 296 292
261 262 262 262 262 262 261 262 262 262 262 262 262 263 264 266 267 268 269 269 269 269 270 271 272 273 273 273 273 274 275 276 277 278 279 279 278 278 279 280 280 279 278 278 278 278 276 275 275 276 275 276 280 282 283 283 282 282 284 286 288 288 288 289 287 286 290 294 292 294 301 303 303 302 302 305 307 305 301 297 298 301 302 301 300 297 293 291
258 259 260 261 263 263 262 262 262 262 263 263 263 263 264 265 265 265 265 266 267 268 269 270 271 272 273 274 275 276 276 277 276 277 278 277 276 277 279 279 279 278 277 277 276 276 276 276 278 278 278 279 281 282 282 281 281 282 284 285 287 288 288 286 285 289 296 295 292 297 304 304 303 303 304 307 307 300 297 298 300 301 300 298 297 294 292 292
256 256 258 259 261 262 262 262 263 264 264 264 264 264 263 262 262 263 264 265 266 267 268 269 270 272 274 276 276 275 275 274 274 275 276 276 277 278 278 278 278 278 277 274 273 274 274 275 275 277 278 279 280 281 280 280 281 282 283 285 286 286 285 285 287 293 296 293 292 300 305 303 303 305 308 309 302 296 297 299 299 298 297 296 294 294 293 294
256 256 258 259 260 261 262 262 263 263 263 263 263 263 263 262 261 262 263 264 265 266 267 269 271 273 274 273 271 271 270 272 274 275 277 277 277 277 276 276 276 277 275 273 272 271 272 274 275 277 278 278 278 279 281 282 283 283 284 285 285 284 285 287 291 293 292 291 295 302 303 300 301 307 309 304 297 296 298 299 297 296 295 294 294 295 294 294
255 256 258 260 260 261 261 261 261 261 262 263 263 264 264 264 263 264 265 266 267 268 268 269 270 271 271 270 268 268 270 273 275 276 277 277 275 274 273 272 272 273 271 270 270 270 271 274 276 278 278 277 278 280 282 283 283 283 284 283 283 285 288 290 290 289 290 292 297 301 299 296 301 306 303 298 297 298 297 297 296 294 294 295 296 297 295 294
256 256 257 258 259 260 260 260 260 260 261 261 262 263 264 265 265 267 268 267 267 268 268 269 270 270 268 267 267 269 272 274 275 275 275 273 272 271 270 269 269 269 268 267 267 269 271 273 275 277 277 278 281 282 282 282 282 281 280 282 287 291 290 287 286 286 291 295 298 297 295 297 303 303 298 297 299 297 295 296 296 295 296 298 297 295 294 292
255 256 255 256 258 259 259 259 260 260 259 259 260 261 261 263 264 265 266 266 265 268 270 271 271 268 265 266 268 271 273 273 273 272 270 267 267 267 267 268 267 267 267 267 268 270 271 272 275 276 277 280 282 282 282 281 279 278 281 288 294 291 285 283 284 287 292 296 296 294 295 300 303 299 297 298 296 293 295 296 297 297 298 296 295 294 293 293
Height
5891 5891 5891 5891 5891 5892 5892 5892 5892 5892 5893 5892 5892 5892 5892 5892 5892 5892 5892 5892 5891 5891 5890 5889 5889 5888 5887 5886 5885 5884 5883 5882 5881 5880 5879 5877 5876 5875 5874 5873 5872 5870 5869 5868 5867 5866 5866 5865 5864 5862 5861 5860 5859 5857 5856 5855 5854 5853 5852 5851 5851 5850 5849 5848 5846 5846 5845 5846 5845 5845 5844 5843 5842 5841 5840 5839 5839 5838 5838 5837 5836 5836 5835 5834 5834 5833 5832 5832
5889 5889 5890 5890 5890 5890 5890 5890 5891 5891 5891 5891 5891 5891 5891 5891 5891 5891 5891 5890 5890 5890 5889 5889 5888 5887 5886 5886 5885 5884 5883 5882 5881 5879 5878 5877 5876 5875 5874 5873 5871 5870 5869 5868 5867 5866 5865 5864 5863 5862 5861 5859 5858 5857 5856 5855 5853 5852 5851 5849 5849 5848 5847 5846 5845 5844 5844 5844 5843 5843 5843 5842 5841 5840 5838 5837 5836 5836 5835 5835 5834 5833 5833 5832 5831 5830 5830 5829
5887 5888 5888 5888 5888 5888 5888 5889 5889 5889 5889 5890 5890 5890 5890 5890 5890 5890 5889 5889 5889 5888 5888 5888 5887 5886 5886 5885 5884 5883 5882 5881 5880 5879 5878 5877 5875 5874 5873 5872 5871 5870 5869 5868 5867 5866 5865 5863 5863 5862 5860 5859 5857 5856 5855 5854 5853 5851 5850 5848 5847 5846 5845 5844 5843 5843 5842 5842 5842 5841 5841 5840 5839 5838 5837 5836 5835 5834 5833 5832 5831 5831 5830 5829 5829 5828 5827 5827
5885 5886 5886 5886 5886 5887 5887 5887 5887 5887 5887 5888 5888 5888 5888 5888 5888 5888 5888 5888 5887 5887 5887 5886 5886 5886 5885 5884 5883 5882 5882 5881 5880 5879 5877 5876 5875 5874 5873 5872 5871 5869 5868 5867 5866 5865 5864 5863 5862 5861 5859 5858 5857 5855 5854 5853 5852 5850 5849 5847 5846 5844 5843 5842 5841 5840 5840 5839 5839 5839 5839 5838 5837 5837 5835 5834 5833 5832 5831 5830 5829 5828 5828 5827 5826 5826 5825 5824
5883 5884 5884 5884 5885 5885 5885 5885 5885 5885 5885 5885 5886 5886 5886 5886 5886 5886 5886 5886 5886 5885 5885 5885 5885 5884 5884 5883 5882 5882 5881 5880 5879 5878 5877 5875 5874 5873 5872 5871 5870 5869 5868 5867 5866 5865 5863 5862 5861 5860 5859 5857 5856 5854 5853 5852 5851 5849 5848 5846 5844 5843 5841 5840 5839 5838 5837 5837 5836 5836 5836 5836 5835 5835 5834 5833 5831 5830 5829 5828 5827 5826 5825 5825 5824 5823 5823 5822
5881 5881 5882 5882 5882 5882 5883 5883 5883 5883 5883 5883 5883 5884 5884 5884 5884 5884 5884 5884 5884 5884 5883 5883 5883 5883 5882 5882 5881 5881 5880 5879 5878 5877 5876 5874 5873 5872 5871 5870 5869 5868 5867 5866 5865 5864 5863 5862 5861 5859 5858 5856 5855 5853 5852 5851 5849 5848 5846 5845 5843 5841 5840 5839 5838 5837 5836 5835 5834 5834 5833 5833 5833 5832 5831 5830 5829 5828 5827 5826 5825 5824 5823 5822 5822 5821 5820 5819
5878 5879 5879 5879 5880 5880 5880 5880 5880 5880 5880 5880 5881 5881 5882 5882 5882 5882 5882 5882 5882 5882 5881 5881 5881 5881 5881 5880 5880 5879 5879 5878 5877 5876 5875 5873 5872 5871 5870 5869 5868 5867 5866 5864 5863 5863 5862 5861 5860 5858 5857 5855 5854 5852 5851 5849 5847 5846 5845 5843 5841 5840 5838 5837 5836 5835 5834 5833 5832 5832 5831 5830 5829 5829 5828 5827 5826 5826 5825 5824 5823 5822 5821 5820 5819 5818 5817 5816
5876 5876 5876 5877 5877 5877 5877 5877 5877 5878 5878 5878 5878 5878 5879 5880 5880 5880 5879 5880 5880 5879 5879 5879 5879 5879 5879 5878 5878 5878 5877 5876 5875 5874 5873 5872 5871 5870 5868 5867 5866 5865 5864 5863 5862 5861 5860 5859 5858 5857 5856 5854 5853 5851 5849 5848 5846 5844 5843 5842 5840 5839 5837 5836 5834 5833 5832 5831 5830 5830 5829 5828 5827 5826 5825 5824 5824 5823 5822 5821 5820 5819 5818 5817 5816 5815 5814 5813
5873 5873 5874 5874 5874 5874 5874 5874 5874 5875 5875 5875 5875 5876 5876 5876 5877 5877 5877 5877 5877 5877 5877 5877 5877 5877 5876 5876 5876 5876 5875 5874 5874 5873 5872 5871 5869 5868 5867 5866 5864 5864 5863 5862 5860 5859 5858 5857 5856 5856 5854 5853 5851 5850 5848 5847 5845 5843 5842 5840 5839 5837 5836 5834 5833 5831 5830 5829 5828 5828 5827 5826 5824 5823 5823 5822 5821 5821 5819 5819 5818 5816 5815 5814 5813 5811 5810 5809
5870 5871 5871 5871 5872 5872 5872 5872 5872 5872 5872 5872 5872 5873 5873 5873 5874 5874 5874 5874 5874 5874 5874 5874 5874 5874 5874 5874 5874 5873 5873 5872 5872 5871 5870 5869 5868 5867 5865 5864 5863 5862 5861 5860 5859 5858 5856 5855 5854 5854 5853 5851 5850 5848 5847 5846 5844 5842 5840 5839 5837 5836 5834 5833 5831 5830 5828 5827 5826 5826 5826 5823 5821 5821 5820 5819 5819 5818 5817 5816 5814 5813 5812 5810 5809 5808 5807 5805
5868 5868 5868 5869 5869 5869 5869 5869 5869 5869 5869 5869 5869 5870 5870 5870 5870 5871 5871 5871 5871 5872 5872 5871 5871 5871 5871 5871 5871 5871 5870 5870 5869 5869 5868 5867 5866 5865 5863 5862 5861 5860 5859 5858 5857 5856 5854 5853 5852 5851 5850 5849 5848 5847 5845 5844 5843 5841 5839 5837 5835 5834 5832 5831 5829 5828 5827 5826 5825 5824 5824 5821 5818 5819 5818 5817 5816 5815 5814 5813 5812 5810 5809 5807 5806 5805 5803 5802
5865 5865 5866 5866 5866 5866 5866 5866 5866 5866 5866 5866 5866 5867 5867 5867 5867 5867 5867 5868 5868 5868 5868 5868 5869 5869 5868 5868 5868 5868 5868 5867 5866 5866 5865 5865 5864 5863 5862 5860 5859 5858 5856 5855 5855 5854 5853 5851 5850 5849 5848 5847 5846 5845 5843 5842 5841 5839 5838 5836 5834 5832 5830 5829 5827 5826 5825 5824 5822 5822 5824 5820 5815 5816 5816 5815 5814 5813 5812 5811 5809 5807 5805 5804 5802 5801 5799 5798
5862 5862 5863 5863 5863 5863 5863 5863 5863 5863 5863 5863 5863 5863 5864 5864 5864 5864 5864 5864 5864 5865 5865 5865 5865 5866 5866 5865 5865 5865 5865 5864 5864 5863 5862 5862 5861 5860 5859 5858 5857 5856 5854 5853 5852 5851 5850 5849 5848 5846 5845 5844 5843 5842 5841 5840 5838 5837 5836 5835 5833 5830 5828 5826 5825 5823 5822 5821 5820 5819 5822 5819 5814 5813 5813 5812 5811 5809 5809 5807 5805 5804 5802 5800 5799 5797 5796 5794
5859 5859 5860 5860 5860 5860 5860 5861 5860 5860 5860 5860 5860 5860 5861 5861 5861 5861 5861 5861 5861 5861 5862 5862 5862 5862 5863 5862 5862 5862 5861 5861 5861 5860 5859 5859 5858 5858 5857 5856 5855 5853 5852 5851 5850 5849 5848 5847 5846 5844 5843 5842 5840 5839 5838 5837 5836 5834 5834 5832 5831 5830 5827 5824 5822 5821 5820 5818 5817 5815 5818 5818 5813 5811 5811 5809 5808 5807 5806 5804 5802 5800 5799 5797 5795 5793 5792 5790
5855 5856 5856 5856 5857 5857 5857 5857 5857 5857 5857 5857 5857 5856 5857 5858 5857 5858 5858 5858 5858 5858 5858 5858 5859 5859 5859 5859 5859 5858 5858 5857 5857 5857 5856 5856 5855 5854 5854 5853 5852 5851 5850 5848 5847 5846 5845 5844 5843 5842 5840 5839 5838 5836 5835 5834 5833 5831 5831 5830 5829 5828 5826 5822 5819 5818 5817 5816 5814 5811 5813 5815 5812 5809 5809 5807 5806 5805 5803 5801 5799 5797 5795 5793 5792 5790 5788 5786
5851 5852 5852 5853 5853 5854 5854 5854 5854 5854 5854 5854 5854 5853 5853 5854 5854 5854 5854 5855 5854 5855 5855 5855 5855 5855 5856 5856 5855 5855 5854 5854 5854 5854 5853 5852 5852 5851 5850 5850 5849 5848 5847 5846 5845 5843 5842 5841 5840 5839 5838 5836 5835 5833 5832 5831 5830 5828 5827 5827 5826 5825 5823 5821 5817 5815 5814 5813 5812 5809 5808 5811 5809 5806 5805 5803 5802 5801 5800 5798 5795 5793 5791 5789 5787 5786 5784 5782
5848 5848 5849 5849 5850 5850 5850 5851 5851 5851 5851 5850 5850 5850 5849 5850 5851 5851 5851 5851 5851 5851 5851 5851 5851 5851 5852 5853 5852 5851 5850 5851 5851 5850 5850 5849 5849 5848 5847 5846 5846 5845 5844 5843 5842 5841 5839 5838 5837 5836 5835 5833 5832 5830 5829 5828 5827 5825 5824 5823 5823 5821 5820 5819 5815 5812 5811 5810 5809 5806 5804 5807 5806 5803 5801 5799 5798 5797 5796 5793 5791 5789 5787 5785 5783 5782 5780 5778
5844 5844 5845 5845 5846 5846 5846 5847 5847 5848 5848 5847 5847 5847 5846 5846 5847 5847 5847 5847 5847 5847 5847 5848 5847 5848 5849 5849 5849 5848 5847 5847 5848 5847 5847 5846 5845 5845 5844 5843 5842 5842 5841 5840 5839 5838 5837 5836 5834 5833 5832 5830 5829 5827 5825 5824 5824 5822 5821 5820 5819 5818 5817 5815 5811 5808 5807 5806 5807 5803 5799 5801 5803 5801 5798 5795 5794 5793 5792 5789 5787 5785 5783 5781 5780 5778 5776 5774
5840 5840 5841 5841 5841 5842 5842 5843 5843 5844 5844 5843 5843 5843 5843 5842 5843 5843 5843 5843 5844 5843 5844 5844 5844 5845 5845 5845 5845 5844 5844 5844 5844 5844 5843 5842 5841 5841 5841 5840 5839 5838 5838 5837 5836 5835 5833 5832 5832 5830 5828 5827 5825 5824 5822 5821 5820 5819 5818 5816 5815 5815 5814 5812 5807 5805 5803 5801 5803 5801 5795 5796 5799 5798 5795 5792 5790 5789 5788 5785 5782 5781 5779 5778 5776 5774 5772 5770
5836 5836 5837 5837 5837 5838 5838 5838 5839 5839 5840 5839 5839 5839 5839 5838 5838 5838 5839 5839 5840 5840 5839 5839 5840 5841 5841 5841 5841 5840 5841 5841 5841 5841 5839 5839 5838 5837 5837 5836 5835 5835 5834 5833 5832 5831 5830 5829 5829 5827 5825 5824 5822 5821 5819 5817 5816 5815 5814 5813 5812 5810 5810 5808 5804 5802 5799 5796 5799 5798 5792 5792 5795 5795 5792 5789 5787 5786 5784 5781 5778 5777 5775 5773 5771 5769 5767 5765
5832 5832 5833 5833 5833 5834 5834 5834 5835 5835 5835 5835 5835 5834 5834 5834 5834 5834 5834 5835 5835 5835 5835 5835 5835 5837 5837 5836 5836 5837 5837 5838 5838 5837 5836 5835 5834 5833 5833 5832 5832 5831 5830 5829 5828 5828 5826 5826 5826 5823 5821 5820 5818 5817 5816 5813 5812 5811 5810 5808 5808 5806 5804 5804 5801 5798 5796 5792 5794 5794 5789 5789 5791 5791 5790 5786 5783 5782 5780 5778 5774 5773 5771 5769 5767 5765 5762 5761
5827 5828 5828 5828 5829 5829 5829 5830 5830 5830 5830 5831 5831 5830 5829 5829 5829 5829 5829 5830 5831 5831 5831 5831 5831 5832 5832 5831 5832 5833 5833 5834 5835 5833 5832 5831 5830 5829 5829 5828 5828 5827 5826 5825 5824 5823 5822 5823 5822 5819 5817 5816 5814 5814 5812 5810 5808 5807 5806 5804 5804 5802 5799 5799 5798 5795 5792 5788 5788 5788 5784 5784 5786 5787 5787 5782 5780 5780 5777 5774 5772 5769 5767 5765 5762 5760 5758 5756
5822 5823 5824 5824 5825 5825 5824 5825 5826 5826 5826 5826 5826 5826 5825 5825 5824 5824 5823 5823 5826 5827 5826 5826 5827 5826 5827 5827 5828 5829 5829 5831 5830 5829 5829 5827 5826 5825 5824 5824 5823 5822 5822 5821 5820 5818 5818 5819 5818 5815 5814 5812 5810 5810 5808 5806 5804 5803 5802 5799 5799 5798 5794 5793 5793 5791 5788 5784 5783 5782 5778 5778 5780 5782 5785 5779 5774 5776 5773 5769 5768 5766 5763 5761 5758 5756 5753 5751
5818 5819 5819 5819 5819 5819 5820 5820 5821 5821 5821 5821 5821 5821 5821 5820 5819 5819 5818 5815 5817 5822 5822 5821 5821 5821 5821 5822 5824 5825 5825 5826 5825 5825 5824 5823 5822 5821 5820 5819 5818 5818 5818 5817 5815 5814 5815 5815 5813 5812 5810 5808 5807 5806 5804 5801 5799 5798 5798 5796 5793 5792 5790 5788 5787 5785 5783 5781 5779 5777 5772 5770 5770 5773 5782 5779 5771 5771 5768 5765 5765 5761 5759 5757 5753 5751 5748 5746
5813 5814 5814 5814 5814 5814 5815 5815 5816 5817 5817 5816 5816 5816 5816 5815 5815 5814 5813 5808 5807 5815 5819 5816 5816 5817 5817 5818 5820 5820 5820 5820 5821 5820 5820 5819 5817 5816 5815 5814 5814 5814 5813 5812 5810 5809 5811 5811 5809 5807 5806 5804 5803 5802 5801 5796 5793 5793 5794 5793 5788 5787 5786 5783 5782 5779 5777 5775 5774 5775 5769 5762 5758 5761 5772 5776 5770 5767 5762 5759 5759 5756 5753 5751 5748 5746 5743 5741
5808 5809 5809 5809 5809 5809 5809 5810 5811 5811 5811 5811 5811 5812 5811 5810 5810 5809 5808 5802 5797 5805 5812 5810 5810 5812 5814 5815 5816 5816 5815 5815 5816 5815 5815 5814 5812 5811 5811 5810 5809 5809 5808 5807 5805 5805 5808 5807 5804 5803 5801 5800 5799 5798 5797 5792 5787 5787 5789 5789 5784 5783 5781 5779 5778 5775 5772 5769 5767 5771 5769 5756 5747 5751 5761 5768 5768 5764 5758 5754 5753 5751 5748 5745 5743 5740 5737 5734
5802 5803 5803 5803 5804 5804 5803 5805 5806 5806 5806 5806 5806 5806 5806 5805 5805 5804 5803 5795 5787 5794 5803 5805 5807 5809 5810 5811 5812 5812 5810 5810 5811 5810 5809 5808 5807 5806 5805 5805 5805 5804 5803 5802 5800 5801 5803 5802 5800 5799 5797 5795 5795 5794 5791 5787 5783 5782 5783 5783 5780 5779 5777 5774 5774 5771 5768 5764 5760 5766 5768 5752 5740 5743 5751 5758 5763 5760 5754 5751 5749 5746 5743 5740 5737 5734 5731 5728
5797 5798 5797 5798 5798 5798 5798 5799 5800 5800 5801 5800 5801 5801 5800 5800 5800 5799 5797 5787 5779 5783 5793 5800 5804 5805 5805 5807 5807 5807 5806 5805 5805 5804 5804 5803 5802 5801 5800 5801 5800 5798 5798 5796 5795 5797 5797 5796 5795 5793 5792 5791 5791 5789 5786 5784 5780 5778 5778 5776 5775 5774 5771 5770 5768 5766 5765 5758 5755 5762 5764 5749 5737 5738 5743 5750 5757 5755 5749 5747 5745 5742 5739 5735 5732 5728 5725 5723
5791 5792 5792 5791 5792 5792 5793 5793 5794 5795 5795 5795 5795 5794 5794 5795 5793 5793 5789 5779 5772 5777 5786 5794 5800 5800 5801 5802 5801 5800 5800 5800 5799 5799 5799 5798 5797 5796 5795 5795 5794 5793 5793 5791 5791 5793 5791 5790 5789 5787 5787 5787 5785 5783 5781 5779 5776 5774 5773 5770 5769 5767 5765 5765 5762 5761 5759 5752 5751 5758 5756 5745 5733 5731 5739 5745 5750 5748 5743 5743 5740 5737 5734 5730 5726 5722 5719 5717
5785 5787 5786 5785 5786 5787 5787 5787 5788 5788 5789 5789 5788 5789 5789 5788 5787 5785 5777 5769 5771 5777 5781 5787 5793 5796 5797 5796 5795 5794 5794 5793 5793 5793 5792 5792 5791 5791 5790 5790 5789 5788 5787 5786 5786 5787 5785 5784 5783 5782 5782 5781 5780 5778 5776 5774 5772 5770 5768 5765 5764 5761 5759 5759 5756 5756 5752 5746 5749 5751 5748 5742 5728 5725 5734 5738 5741 5742 5739 5738 5736 5732 5730 5724 5720 5716 5713 5712
5778 5780 5779 5779 5781 5780 5781 5782 5782 5782 5782 5782 5782 5782 5782 5781 5780 5772 5763 5765 5773 5775 5777 5781 5785 5789 5790 5789 5789 5788 5788 5787 5786 5786 5786 5785 5785 5784 5784 5784 5783 5782 5781 5780 5781 5781 5779 5778 5777 5776 5776 5775 5774 5772 5770 5769 5767 5765 5762 5759 5758 5754 5753 5752 5749 5750 5746 5741 5745 5744 5739 5735 5724 5723 5731 5731 5732 5735 5733 5732 5731 5728 5724 5719 5714 5710 5707 5705
5771 5772 5773 5774 5774 5774 5775 5776 5776 5776 5775 5775 5776 5775 5775 5773 5766 5758 5759 5767 5771 5769 5774 5778 5779 5781 5782 5783 5783 5783 5782 5781 5780 5780 5779 5778 5777 5777 5778 5777 5777 5775 5774 5774 5774 5773 5772 5772 5771 5770 5770 5770 5768 5766 5765 5763 5761 5758 5756 5754 5752 5749 5747 5745 5743 5742 5739 5738 5740 5737 5732 5725 5719 5722 5726 5723 5725 5728 5728 5726 5724 5722 5718 5712 5708 5704 5701 5698
5763 5765 5767 5767 5768 5768 5769 5769 5770 5769 5768 5769 5769 5768 5769 5762 5750 5750 5761 5767 5766 5766 5770 5772 5772 5774 5774 5775 5776 5776 5776 5775 5775 5774 5773 5772 5771 5771 5771 5771 5771 5769 5768 5768 5767 5765 5765 5765 5765 5764 5765 5764 5762 5761 5759 5757 5755 5752 5750 5749 5747 5744 5742 5739 5736 5734 5732 5734 5732 5728 5724 5717 5714 5718 5717 5715 5718 5721 5723 5720 5718 5716 5711 5705 5701 5697 5695 5692
5756 5758 5759 5760 5761 5761 5761 5762 5763 5762 5762 5762 5761 5761 5760 5748 5739 5749 5760 5763 5764 5764 5764 5765 5766 5767 5766 5767 5767 5768 5769 5769 5769 5769 5768 5766 5765 5765 5766 5765 5764 5763 5762 5761 5760 5759 5757 5756 5758 5759 5758 5758 5757 5755 5753 5751 5748 5745 5744 5743 5741 5741 5737 5733 5732 5729 5727 5728 5723 5718 5716 5712 5711 5711 5707 5707 5711 5715 5716 5714 5711 5709 5703 5698 5695 5691 5688 5684
5749 5750 5752 5753 5753 5754 5754 5754 5755 5755 5754 5753 5754 5753 5746 5737 5738 5748 5755 5758 5760 5760 5759 5759 5760 5759 5759 5759 5759 5761 5762 5762 5762 5762 5760 5760 5760 5760 5760 5759 5759 5758 5757 5754 5754 5754 5751 5749 5750 5750 5750 5751 5750 5748 5747 5744 5741 5739 5738 5737 5735 5735 5731 5726 5726 5725 5723 5721 5715 5709 5708 5708 5707 5704 5700 5702 5707 5710 5710 5707 5705 5702 5696 5692 5688 5685 5681 5677
5741 5743 5744 5746 5747 5747 5745 5746 5747 5747 5746 5746 5745 5741 5736 5735 5740 5744 5747 5751 5753 5754 5754 5753 5752 5751 5751 5751 5753 5755 5755 5754 5754 5754 5753 5753 5753 5753 5753 5753 5753 5752 5751 5749 5748 5747 5745 5743 5744 5742 5741 5742 5741 5740 5739 5736 5733 5733 5732 5731 5730 5728 5724 5720 5719 5720 5718 5712 5708 5704 5700 5700 5701 5696 5695 5699 5702 5704 5703 5699 5697 5693 5688 5684 5680 5676 5673 5669
5734 5735 5737 5738 5740 5738 5737 5739 5739 5738 5738 5737 5734 5732 5732 5733 5736 5739 5741 5744 5746 5748 5748 5745 5744 5744 5744 5744 5746 5748 5748 5747 5746 5746 5746 5746 5745 5745 5746 5747 5746 5746 5745 5743 5740 5739 5738 5737 5737 5736 5734 5734 5734 5731 5729 5727 5727 5726 5726 5726 5723 5719 5717 5715 5712 5712 5710 5703 5700 5700 5696 5692 5691 5690 5691 5694 5696 5696 5693 5689 5688 5685 5680 5675 5671 5667 5664 5661
5727 5728 5729 5732 5731 5729 5729 5731 5730 5730 5730 5727 5725 5726 5727 5728 5731 5735 5737 5738 5740 5741 5740 5738 5738 5738 5738 5737 5737 5739 5740 5739 5739 5739 5739 5738 5736 5737 5739 5739 5740 5740 5739 5736 5732 5731 5730 5728 5730 5731 5728 5728 5727 5722 5720 5721 5721 5719 5718 5717 5714 5711 5710 5710 5706 5703 5700 5695 5692 5694 5693 5684 5679 5684 5688 5689 5690 5689 5685 5680 5679 5678 5672 5667 5663 5659 5655 5653
5718 5719 5723 5726 5722 5719 5720 5721 5721 5721 5719 5717 5718 5721 5721 5723 5726 5728 5731 5732 5733 5732 5730 5731 5732 5731 5730 5730 5730 5731 5731 5731 5732 5731 5730 5730 5728 5728 5731 5732 5733 5733 5732 5729 5725 5723 5722 5719 5721 5726 5724 5721 5718 5715 5716 5717 5715 5712 5709 5707 5705 5704 5703 5702 5699 5695 5691 5688 5684 5684 5685 5677 5672 5679 5684 5685 5686 5683 5677 5674 5673 5670 5665 5660 5656 5652 5649 5646
5710 5710 5715 5718 5712 5708 5711 5710 5711 5711 5709 5710 5715 5715 5714 5716 5718 5722 5725 5725 5724 5723 5722 5724 5724 5723 5723 5724 5723 5724 5723 5723 5724 5723 5722 5722 5721 5721 5724 5725 5726 5726 5725 5721 5718 5716 5715 5711 5712 5718 5717 5712 5711 5711 5711 5710 5707 5704 5702 5699 5698 5698 5695 5691 5689 5688 5684 5680 5675 5673 5672 5669 5668 5674 5679 5680 5678 5674 5670 5667 5665 5662 5657 5652 5648 5645 5642 5639
5701 5701 5707 5709 5702 5700 5701 5699 5701 5704 5701 5704 5708 5707 5706 5709 5713 5715 5717 5716 5715 5715 5715 5715 5715 5716 5717 5717 5717 5718 5717 5715 5716 5715 5713 5714 5714 5714 5718 5719 5719 5719 5717 5714 5712 5710 5708 5704 5705 5707 5706 5704 5704 5703 5701 5699 5697 5696 5695 5695 5694 5693 5689 5682 5679 5681 5678 5671 5666 5661 5657 5659 5666 5671 5674 5673 5668 5665 5663 5660 5657 5654 5649 5645 5641 5638 5635 5632
5691 5693 5698 5697 5692 5693 5692 5690 5695 5695 5691 5695 5699 5700 5701 5703 5705 5706 5707 5707 5706 5706 5707 5707 5708 5710 5710 5710 5709 5710 5708 5706 5707 5706 5703 5705 5707 5709 5712 5712 5710 5710 5708 5706 5705 5704 5701 5698 5697 5697 5697 5697 5694 5692 5691 5688 5688 5687 5688 5690 5689 5686 5684 5677 5671 5671 5671 5664 5657 5650 5644 5649 5662 5668 5666 5663 5659 5657 5655 5652 5650 5647 5642 5637 5634 5631 5628 5626
5683 5685 5687 5685 5683 5683 5680 5681 5686 5684 5683 5690 5693 5693 5694 5694 5696 5698 5699 5698 5697 5697 5698 5698 5700 5701 5700 5701 5701 5700 5700 5698 5696 5696 5695 5697 5701 5704 5706 5704 5701 5701 5700 5698 5698 5696 5693 5690 5688 5687 5688 5687 5683 5682 5681 5679 5679 5681 5682 5683 5680 5678 5677 5672 5663 5659 5658 5654 5648 5642 5635 5640 5656 5662 5656 5653 5652 5650 5647 5643 5641 5637 5632 5629 5626 5623 5622 5619
5674 5675 5675 5674 5672 5670 5668 5673 5678 5676 5678 5684 5683 5683 5684 5684 5686 5689 5690 5689 5689 5689 5688 5688 5689 5689 5690 5692 5692 5692 5692 5687 5686 5688 5689 5690 5694 5698 5697 5693 5692 5692 5691 5690 5690 5687 5683 5681 5680 5678 5676 5675 5672 5671 5671 5673 5674 5674 5675 5674 5671 5672 5670 5663 5656 5649 5643 5642 5641 5635 5629 5634 5648 5651 5644 5643 5643 5641 5639 5634 5630 5627 5624 5622 5619 5616 5615 5611
5664 5662 5663 5664 5661 5658 5660 5667 5670 5668 5671 5674 5673 5674 5675 5674 5678 5682 5681 5681 5681 5679 5677 5676 5678 5680 5682 5683 5682 5682 5681 5679 5678 5680 5683 5684 5685 5687 5686 5684 5684 5683 5682 5682 5680 5676 5673 5672 5671 5667 5662 5661 5662 5663 5665 5667 5666 5663 5665 5665 5665 5665 5662 5656 5650 5637 5628 5631 5633 5628 5621 5625 5639 5642 5636 5635 5634 5632 5630 5625 5620 5619 5617 5615 5612 5609 5607 5604
5652 5650 5652 5654 5650 5647 5652 5659 5659 5656 5661 5663 5662 5664 5667 5667 5672 5675 5673 5671 5670 5668 5666 5667 5670 5671 5672 5672 5671 5671 5672 5673 5672 5672 5676 5676 5673 5674 5675 5674 5675 5674 5673 5672 5669 5665 5660 5658 5659 5656 5651 5650 5653 5657 5657 5656 5654 5653 5655 5657 5658 5656 5653 5651 5641 5628 5624 5624 5620 5620 5618 5614 5624 5633 5630 5629 5627 5623 5620 5616 5611 5611 5609 5606 5604 5601 5598 5596
5638 5640 5643 5644 5639 5636 5643 5649 5647 5646 5651 5651 5650 5655 5660 5661 5663 5664 5663 5661 5661 5658 5657 5659 5661 5660 5661 5663 5663 5662 5664 5665 5663 5663 5665 5664 5663 5665 5665 5664 5664 5663 5663 5662 5658 5654 5647 5645 5649 5647 5642 5642 5647 5650 5647 5642 5644 5646 5646 5648 5649 5646 5644 5640 5631 5627 5629 5617 5602 5611 5618 5607 5609 5621 5622 5622 5620 5614 5611 5609 5604 5603 5601 5598 5595 5592 5590 5588
5626 5631 5634 5633 5629 5626 5632 5639 5640 5639 5640 5640 5640 5644 5647 5649 5652 5653 5653 5653 5652 5650 5649 5649 5652 5653 5656 5658 5654 5651 5654 5655 5652 5654 5656 5655 5656 5656 5653 5653 5653 5652 5652 5649 5646 5644 5636 5634 5641 5639 5633 5634 5639 5640 5635 5632 5635 5638 5637 5639 5640 5637 5633 5629 5624 5628 5629 5609 5595 5607 5614 5602 5601 5610 5613 5614 5610 5603 5602 5602 5598 5594 5592 5589 5586 5584 5582 5580
5617 5621 5623 5621 5618 5619 5624 5630 5631 5626 5627 5630 5629 5630 5634 5639 5643 5644 5643 5642 5641 5642 5642 5641 5646 5650 5649 5648 5643 5640 5643 5646 5645 5647 5648 5646 5647 5646 5642 5643 5643 5642 5640 5637 5635 5634 5625 5623 5632 5631 5623 5624 5630 5630 5625 5623 5625 5627 5629 5633 5631 5625 5624 5623 5621 5622 5617 5603 5598 5605 5602 5596 5599 5604 5604 5604 5601 5595 5594 5593 5590 5586 5583 5580 5578 5576 5574 5572
5608 5612 5615 5611 5607 5610 5614 5616 5616 5613 5616 5619 5616 5619 5626 5628 5631 5634 5632 5631 5632 5633 5634 5634 5639 5642 5639 5636 5632 5629 5635 5640 5638 5640 5641 5635 5634 5635 5630 5630 5633 5631 5629 5628 5626 5623 5617 5614 5622 5622 5611 5613 5622 5622 5616 5615 5614 5614 5619 5624 5621 5615 5617 5620 5616 5611 5604 5598 5600 5601 5590 5587 5598 5602 5595 5591 5591 5589 5586 5585 5582 5578 5574 5572 5571 5569 5566 5564
5601 5605 5606 5600 5595 5599 5601 5602 5604 5602 5604 5606 5606 5613 5617 5616 5623 5627 5620 5618 5621 5622 5623 5624 5628 5632 5627 5623 5621 5622 5630 5633 5629 5631 5632 5623 5619 5621 5618 5619 5623 5621 5619 5621 5618 5614 5610 5607 5612 5611 5599 5601 5615 5613 5604 5605 5604 5600 5606 5614 5616 5613 5611 5611 5607 5601 5596 5593 5594 5592 5583 5582 5592 5594 5586 5583 5584 5581 5577 5577 5574 5570 5568 5566 5563 5561 5558 5555
5594 5593 5594 5589 5583 5584 5588 5591 5591 5588 5590 5596 5601 5605 5605 5606 5615 5616 5605 5605 5612 5614 5613 5614 5618 5619 5614 5611 5615 5619 5622 5621 5617 5618 5618 5611 5608 5609 5608 5609 5612 5611 5611 5612 5609 5607 5604 5600 5603 5602 5590 5591 5603 5599 5592 5593 5588 5585 5597 5610 5612 5608 5602 5597 5596 5595 5593 5589 5583 5580 5579 5581 5582 5578 5575 5576 5576 5572 5570 5569 5566 5563 5562 5559 5556 5553 5550 5548